LITTLE LAKE NEAR BAY DOSGRIS NEA LA US USGS current weather conditions

sailwx.info

Wind from 090 at 8 knots

Last reported at 2020-Jan-29 07:00 UTC.
Time now 2020-Jan-29 08:17 UTC

Location: N 29°28' W 090°06'.
View on Google Maps.

See reports from other nearby stations

  
Tides and Currents Weather Stations Pressure Air Temp Water Temp Dewpoint Dewpoint Depression Visibility Wind Speed Wind Dir Waves Ship Positions
date/time (UTC)wind fromknots sea level pressurealtimeterstation pressurevisibilityair tempwater tempwave heightnotes
2020-Jan-29 07:00 090 8
2020-Jan-29 06:00 095 15
2020-Jan-29 05:00 104 14
2020-Jan-29 04:00 089 11
2020-Jan-29 03:00 087 9
2020-Jan-29 02:00 079 11
2020-Jan-29 01:00 086 11
2020-Jan-29 00:00 081 12
2020-Jan-28 23:00 081 14
2020-Jan-28 22:00 076 13
2020-Jan-28 21:00 086 9
2020-Jan-28 20:00 090 11
2020-Jan-28 19:00 096 11
2020-Jan-28 18:00 087 8
2020-Jan-28 17:00 090 14
2020-Jan-28 16:00 074 12
2020-Jan-28 15:00 052 13
2020-Jan-28 14:00 072 14
2020-Jan-28 13:00 081 13
2020-Jan-28 12:00 068 9
2020-Jan-28 11:00 053 7
2020-Jan-28 10:00 078 9
2020-Jan-28 09:00 084 8
2020-Jan-28 08:00 074 8
2020-Jan-28 07:00 087 4
2020-Jan-28 06:00 093 6
2020-Jan-28 05:00 080 5
2020-Jan-28 04:00 086 4
2020-Jan-28 03:00 046 6
2020-Jan-28 02:00 047 6
2020-Jan-28 01:00 011 6
2020-Jan-28 00:00 350 6
2020-Jan-27 23:00 342 9
2020-Jan-27 22:00 322 7
2020-Jan-27 21:00 003 4
2020-Jan-27 20:00 009 6
2020-Jan-27 19:00 006 11
2020-Jan-27 18:00 008 10
2020-Jan-27 17:00 012 10
2020-Jan-27 16:00 013 11
2020-Jan-27 15:00 004 12
2020-Jan-27 14:00 358 14
2020-Jan-27 13:00 354 7
2020-Jan-27 12:00 330 8
2020-Jan-27 11:00 337 13
2020-Jan-27 10:00 350 10
2020-Jan-27 09:00 357 10
2020-Jan-27 08:00 011 10